Flag for U.S.A. Weather past 2 weeks in Shreveport, Louisiana, U.S.A.

Now
72 °F

Clear.


Feels Like: 70 °F
Forecast: 69 / 90 °F
Wind: No wind

Location: Shreveport Regional Airport

Current Time: Sep 20, 2014 at 3:40:47 AM

Latest Report: Sep 20, 2014 at 2:56 AM


Visibility: 10 mi

Pressure: 29.95 "Hg

Humidity: 87%

Dew point: 68 °F

Location of ShreveportLocation

Historic Weather in Shreveport — Graph

°F

Shreveport temperature yesterday

Maximum temperature yesterday: 90 °F (at 2:56 PM)
Minimum temperature yesterday: 71 °F (at 4:56 AM)
Average temperature yesterday: 79 °F

Past Weeks' High & Low Weather Summary

 TemperatureHumidityPressure
High94 °F (Sep 5, 1:56 PM)94% (Sep 6, 6:56 AM)30.24 "Hg (Sep 6, 6:56 AM)
Low61 °F (Sep 13, 7:56 AM)43% (Sep 10, 4:56 PM)29.80 "Hg (Sep 10, 5:56 PM)
Average79 °F74%30.00 "Hg
* Reported Sep 5 1:56 AM — Sep 20 1:56 AM, Shreveport, Weather by CustomWeather, © 2014

Note: Actual official high and low records may vary slightly from our data, if they occured in-between our weather recording intervals... More about our weather records

Advertising

Shreveport weather history for previous 24 hours

 ConditionsComfort  
Time TempWeatherWind HumidityBarometerVisibility
1:56 AM
Sep 20
73 °FClear.No wind88%29.95 "Hg10 mi
12:56 AM74 °FClear.No wind85%29.96 "Hg10 mi
11:56 PM
Sep 19
75 °FClear.5 mph82%29.95 "Hg10 mi
10:56 PM76 °FClear.3 mph80%29.96 "Hg10 mi
9:56 PM78 °FClear.3 mph74%29.95 "Hg10 mi
8:56 PM79 °FClear.6 mph69%29.93 "Hg10 mi
7:56 PM81 °FPassing clouds.7 mph65%29.91 "Hg10 mi
6:56 PM85 °FScattered clouds.6 mph55%29.91 "Hg10 mi
5:56 PM88 °FScattered clouds.14 mph50%29.89 "Hg10 mi
4:56 PM89 °FScattered clouds.10 mph50%29.89 "Hg10 mi
3:56 PM89 °FScattered clouds.13 mph48%29.90 "Hg10 mi
2:56 PM90 °FScattered clouds.5 mph48%29.92 "Hg10 mi
1:56 PM87 °FScattered clouds.8 mph55%29.94 "Hg10 mi
12:56 PM87 °FPassing clouds.10 mph61%29.96 "Hg10 mi
11:56 AM82 °FPartly sunny.7 mph72%29.97 "Hg7 mi
10:56 AM79 °FLow clouds.7 mph82%29.98 "Hg6 mi
9:56 AM77 °FFog.5 mph88%29.96 "Hg6 mi
8:56 AM76 °FLow clouds.3 mph88%29.95 "Hg10 mi
7:56 AM74 °FPassing clouds.5 mph91%29.94 "Hg9 mi
6:56 AM73 °FPassing clouds.6 mph94%29.92 "Hg10 mi
5:56 AM73 °FPassing clouds.5 mph90%29.90 "Hg10 mi
4:56 AM71 °FPassing clouds.No wind90%29.90 "Hg10 mi
3:56 AM73 °FPassing clouds.No wind88%29.90 "Hg10 mi
Weather by CustomWeather, © 2014

See weather overviewHow to use our weather pages